Regional Weather Roundup
Issued by NWS

Home | Current Version | Previous Version | Text Only | Print | Product List | Glossary Off
Versions: 1 2 3 4 5 6 7 8 9 10 11 12 13 14 15 16 17 18 19 20 21 22 23 24 25 26 27 28 29 30 31 32 33 34 35 36 37 38 39 40 41 42 43 44 45 46 47 48 49 50

000
ASUS43 KDTX 051801
RWRMI
MICHIGAN HOURLY REGIONAL WEATHER ROUNDUP
NATIONAL WEATHER SERVICE DETROIT/PONTIAC MI
200 PM EDT TUE MAY 05 2015

NOTE: "FAIR" INDICATES FEW OR NO CLOUDS BELOW 12,000 FEET WITH NO
SIGNIFICANT WEATHER AND/OR OBSTRUCTION TO VISIBILITY.

MIZ047>049-052>055-059>063-066>070-074>076-081>083-051900-
SOUTHEAST LOWER MICHIGAN

CITY           SKY/WX    TMP DP  RH WIND       PRES   REMARKS
ADRIAN         LGT RAIN  53  48  83 NE7       30.29S
6HR MIN TEMP:  51; 6HR MAX TEMP:  57;

ALMA           LGT RAIN  52  46  79 CALM      30.34R
ANN ARBOR      LGT RAIN  53  48  83 NE8       30.29R
BAD AXE        CLOUDY    51  41  69 N6        30.33S
CARO           LGT RAIN  55  45  69 CALM      30.31F
DETROIT CITY   CLOUDY    52  45  77 NE8       30.30S
6HR MIN TEMP:  49; 6HR MAX TEMP:  56; 6HR PCP:  0.24;

DETROIT        CLOUDY    54  46  74 N9        30.31R
6HR MIN TEMP:  51; 6HR MAX TEMP:  58;

FLINT          CLOUDY    52  46  80 E8        30.30F
6HR MIN TEMP:  50; 6HR MAX TEMP:  54; 6HR PCP:  0.21;

GROSSE ILE     CLOUDY    52  46  82 N8        30.28R
HILLSDALE      LGT RAIN  53  52  97 E6        30.27F
6HR MIN TEMP:  50; 6HR MAX TEMP:  57;

HOWELL         LGT RAIN  49  46  88 NE7       30.29F
6HR MIN TEMP:  47; 6HR MAX TEMP:  54;


CITY           SKY/WX    TMP DP  RH WIND       PRES   REMARKS
JACKSON        CLOUDY    51  47  86 NE12      30.28F
6HR MIN TEMP:  48; 6HR MAX TEMP:  56; 6HR PCP:  0.42;

LAMBERTVILLE   LGT RAIN  55  50  82 E5        30.28S
LANSING        LGT RAIN  49  45  86 NE7       30.31S FOG
6HR MIN TEMP:  48; 6HR MAX TEMP:  54; 6HR PCP:  0.14;

LAPEER         RAIN      49  45  85 E3        30.31F
MASON          LGT RAIN  49  44  85 E6        30.30S
MONROE         LGT RAIN  54  48  82 NE5       30.28R
MT. CLEMENS    LGT RAIN  52  48  85 N10       30.26F
6HR MIN TEMP:  50; 6HR MAX TEMP:  55; 6HR PCP:  0.35;

PONTIAC        LGT RAIN  52  47  83 NE9       30.29S
6HR MIN TEMP:  48; 6HR MAX TEMP:  54;

PORT HOPE        N/A     44  38  79 NW3       30.32F
6HR MIN TEMP:  43; 6HR MAX TEMP:  45;

PORT HURON     RAIN      50  46  87 N3        30.31F
TRI CITIES     CLOUDY    58  42  55 NE6       30.32F
6HR MIN TEMP:  51; 6HR MAX TEMP:  58; 6HR PCP: TRACE;

MIDLAND        FAIR      57  39  51 NE3       30.31S
TROY           DRIZZLE   52  47  82 NE6       30.31S
SAGINAW HB     LGT RAIN  55  43  62 E6        30.31S
$$
MIZ043>046-050>051-056>058-064>065-071>073-077>080-051900-
SOUTHWEST LOWER MICHIGAN

CITY           SKY/WX    TMP DP  RH WIND       PRES   REMARKS
BATTLE CREEK   LGT RAIN  51  47  86 NE5       30.29R
6HR MIN TEMP:  50; 6HR MAX TEMP:  54; 6HR PCP:  0.25;

BENTON HARBOR  CLOUDY    53  52  96 E9        30.24F
6HR MIN TEMP:  51; 6HR MAX TEMP:  55; 6HR PCP:  0.26;

BIG RAPIDS     CLOUDY    58  36  43 SE8       30.31S
6HR MIN TEMP:  49; 6HR MAX TEMP:  58; 6HR PCP:  0.01;

COLDWATER      LGT RAIN  53  50  89 E6        30.26F
6HR MIN TEMP:  52; 6HR MAX TEMP:  55;

FREMONT        PTSUNNY   51  45  79 SE10      30.32R
HOLLAND        LGT RAIN  50  45  83 E10       30.30R
6HR MIN TEMP:  50; 6HR MAX TEMP:  55; 6HR PCP:  0.18;

GRAND RAPIDS   LGT RAIN  49  45  86 E13       30.30S FOG
6HR MIN TEMP:  49; 6HR MAX TEMP:  54; 6HR PCP:  0.14;

IONIA          RAIN      50  47  88 E12       30.30F
KALAMAZOO      LGT RAIN  51  47  86 E6        30.29R
6HR MIN TEMP:  51; 6HR MAX TEMP:  54; 6HR PCP:  0.40;

LUDINGTON      CLOUDY    64  17  17 SE12      30.31S
MARSHALL       CLOUDY    50  47  90 SE3       30.27F
MOUNT PLEASANT CLOUDY    55  40  56 CALM      30.32R
6HR MIN TEMP:  50; 6HR MAX TEMP:  55;

MUSKEGON       LGT RAIN  53  45  74 E17       30.31S
6HR MIN TEMP:  50; 6HR MAX TEMP:  55; 6HR PCP:  0.17;

SOUTH HAVEN    RAIN      52  50  92 E7        30.27S
$$
MIZ016>042-051900-
NORTHERN LOWER MICHIGAN

CITY           SKY/WX    TMP DP  RH WIND       PRES   REMARKS
ALPENA         CLOUDY    64  41  42 NE7       30.32F
6HR MIN TEMP:  43; 6HR MAX TEMP:  65;

BEAVER ISLAND  SUNNY     65  25  22 E8        30.33F
6HR MIN TEMP:  42; 6HR MAX TEMP:  65;

BELLAIRE       PTSUNNY   67  20  17 NE5       30.31F
6HR MIN TEMP:  37; 6HR MAX TEMP:  67;

CADILLAC       CLOUDY    62  23  22 E12       30.30S
CHARLEVOIX     MOSUNNY   55  38  52 NW6       30.35F
6HR MIN TEMP:  42; 6HR MAX TEMP:  57;

FRANKFORT      PTSUNNY   66  15  14 NE7       30.31F
GAYLORD        PTSUNNY   61  22  22 NE8       30.32F
6HR MIN TEMP:  45; 6HR MAX TEMP:  62;

GRAYLING       CLOUDY    63  24  22 NE8       30.32F
6HR MIN TEMP:  37; 6HR MAX TEMP:  63;

HARBOR SPRINGS MOSUNNY   67  26  21 NE13      30.32F
MANISTEE       CLOUDY    64  27  24 E12       30.31F
OSCODA         CLOUDY    50  42  74 NE10      30.32F
PELLSTON       SUNNY     67  22  18 E12G20    30.33F
6HR MIN TEMP:  38; 6HR MAX TEMP:  67;

ROGERS CITY    PTSUNNY   54  40  58 N5        30.35S
TRAVERSE CITY  CLOUDY    57  38  48 W6        30.31F
6HR MIN TEMP:  40; 6HR MAX TEMP:  57;

$$
MIZ007>008-015-051900-
EASTERN UPPER MICHIGAN

CITY           SKY/WX    TMP DP  RH WIND       PRES   REMARKS
KINROSS        SUNNY     64  28  25 NE3       30.32F
6HR MIN TEMP:  39; 6HR MAX TEMP:  66;

MACKINAC ISLAN SUNNY     62  27  26 SE5       30.33F
6HR MIN TEMP:  44; 6HR MAX TEMP:  62;

NEWBERRY       SUNNY     66  29  24 N5        30.31F
S. S. MARIE    SUNNY     66  30  26 VRB5      30.31F
6HR MIN TEMP:  42; 6HR MAX TEMP:  66;

MUNISING         N/A     49  32  52 N10       30.31F
6HR MIN TEMP:  41; 6HR MAX TEMP:  51;

$$
MIZ004>006-011>014-085-051900-
CENTRAL UPPER MICHIGAN

CITY           SKY/WX    TMP DP  RH WIND       PRES   REMARKS
MANISTIQUE     SUNNY     60  32  34 S8        30.33F
6HR MIN TEMP:  42; 6HR MAX TEMP:  61;

ESCANABA       SUNNY     55  36  47 SE10      30.33F
6HR MIN TEMP:  41; 6HR MAX TEMP:  59;

MENOMINEE      SUNNY     57  34  41 SE8       30.33F
6HR MIN TEMP:  46; 6HR MAX TEMP:  57;

SAWYER-GWINN   SUNNY     66  27  22 CALM      30.30F
$$
MIZ001>003-009>011-084-051900-
WESTERN UPPER MICHIGAN

CITY           SKY/WX    TMP DP  RH WIND       PRES   REMARKS
IRON MOUNTAIN  SUNNY     68  29  23 SE9       30.29F
6HR MIN TEMP:  40; 6HR MAX TEMP:  68;

HOUGHTON       SUNNY     67  27  22 SE12      30.28F
6HR MIN TEMP:  48; 6HR MAX TEMP:  67;

COPPER HARBOR    N/A     48  36  63 CALM      30.30F
6HR MIN TEMP:  43; 6HR MAX TEMP:  57;

IRONWOOD       SUNNY     68  25  19 SE5       30.23F
6HR MIN TEMP:  37; 6HR MAX TEMP:  68;

$$

ABBREVIATIONS USED IN REMARKS
   TC - TEMPERATURE IN CELSIUS
  WCI - WIND CHILL INDEX
   HX - HEAT INDEX
  VSB - VISIBILITY



USA.gov is the U.S. government's official web portal to all federal, state and local government web resources and services.